Flag Weather past 2 weeks in Portland, Oregon, U.S.A.

Now
56 °F

Overcast.


Feels Like: 53 °F
Forecast: 53 / 56 °F
Wind: 13 mph from East

Location: Portland International Airport

Current Time: Nov 26, 2014 at 11:22:12 PM

Latest Report: Nov 26, 2014 at 10:53 PM


Visibility: 10 mi

Pressure: 29.99 "Hg

Humidity: 87%

Dew point: 52 °F

Location of PortlandLocation

Historic Weather in Portland — Graph

°F

Portland temperature yesterday

Maximum temperature yesterday: 62 °F (at 12:53 PM)
Minimum temperature yesterday: 55 °F (at 12:53 AM)
Average temperature yesterday: 59 °F

Past Weeks' High & Low Weather Summary

 TemperatureHumidityPressure
High62 °F (Nov 25, 12:53 PM)100% (Nov 21, 12:53 PM)30.53 "Hg (Nov 21, 12:53 PM)
Low28 °F (Nov 15, 5:53 AM)27% (Nov 15, 1:53 PM)29.42 "Hg (Nov 21, 6:53 PM)
Average43 °F70%30.15 "Hg
* Reported Nov 11 9:53 PM — Nov 26 9:53 PM, Portland, Weather by CustomWeather, © 2014

Note: Actual official high and low records may vary slightly from our data, if they occured in-between our weather recording intervals... More about our weather records

Advertising

Portland weather history for previous 24 hours

 ConditionsComfort  
Time TempWeatherWind HumidityBarometerVisibility
9:53 PM
Nov 26
55 °FOvercast.10 mph90%29.97 "Hg10 mi
8:53 PM56 °FPartly cloudy.12 mph87%29.99 "Hg10 mi
7:53 PM57 °FMostly cloudy.10 mph83%30.01 "Hg10 mi
6:53 PM57 °FOvercast.No wind83%30.02 "Hg10 mi
5:53 PM56 °FMostly cloudy.7 mph84%30.02 "Hg10 mi
4:53 PM57 °FMostly cloudy.8 mph83%30.04 "Hg10 mi
3:53 PM59 °FPartly sunny.8 mph81%30.06 "Hg10 mi
2:53 PM60 °FMostly cloudy.No wind78%30.09 "Hg10 mi
1:53 PM61 °FMostly cloudy.No wind78%30.10 "Hg10 mi
12:53 PM60 °FMostly cloudy.3 mph78%30.11 "Hg10 mi
11:53 AM59 °FMostly cloudy.6 mph81%30.13 "Hg10 mi
10:53 AM59 °FOvercast.5 mph81%30.16 "Hg10 mi
9:53 AM57 °FOvercast.6 mph87%30.17 "Hg10 mi
8:53 AM57 °FOvercast.6 mph83%30.17 "Hg10 mi
7:53 AM58 °FOvercast.8 mph78%30.19 "Hg10 mi
6:53 AM56 °FOvercast.7 mph84%30.19 "Hg10 mi
5:53 AM55 °FOvercast.5 mph90%30.20 "Hg10 mi
4:53 AM57 °FOvercast.6 mph87%30.22 "Hg10 mi
3:53 AM57 °FOvercast.5 mph87%30.24 "Hg10 mi
2:53 AM57 °FOvercast.6 mph90%30.26 "Hg10 mi
1:53 AM57 °FOvercast.6 mph90%30.27 "Hg10 mi
12:53 AM57 °FOvercast.5 mph90%30.28 "Hg10 mi
11:53 PM
Nov 25
58 °FMostly cloudy.3 mph87%30.29 "Hg10 mi
Weather by CustomWeather, © 2014

See weather overviewHow to use our weather pages